KJ4EBE Weather Reports


time (UTC)temp
F
wind
direction
speed
knots
gust
knots
rain 1hr
in
rain 24hr
in
rain mn
in
humidity
%
barometer
mb
20260906225926 96 198 9.6 14.8 0.00 0.11 0.11 45 1011.3
20260906225421 97 182 7.8 11.3 0.00 0.11 0.11 45 1011.4
20260906224917 97 195 8.7 12.2 0.00 0.11 0.11 44 1011.1
20260906224413 98 181 8.7 13.0 0.00 0.11 0.11 43 1011.0
20260906223909 100 189 9.6 11.3 0.00 0.11 0.11 42 1011.4
20260906223405 100 181 9.6 9.6 0.00 0.11 0.11 41 1011.4
20260906222903 98 200 11.3 13.0 0.00 0.11 0.11 43 1011.4
20260906222402 96 184 8.7 13.0 0.00 0.11 0.11 44 1011.4
20260906221859 98 185 10.4 12.2 0.00 0.11 0.11 43 1011.6
20260906221354 101 177 8.7 10.4 0.00 0.11 0.11 41 1011.5
20260906220850 99 185 8.7 13.0 0.00 0.11 0.11 42 1011.6
20260906220345 98 205 12.2 13.0 0.00 0.11 0.11 43 1011.7
20260906215844 97 178 9.6 12.2 0.00 0.11 0.11 43 1011.8
20260906215339 98 180 9.6 12.2 0.00 0.11 0.11 42 1011.7
20260906214836 97 181 9.6 13.9 0.00 0.11 0.11 44 1011.7
20260906214331 99 179 9.6 12.2 0.00 0.11 0.11 42 1011.7
20260906213830 100 179 8.7 13.0 0.00 0.11 0.11 41 1011.8
20260906213325 100 157 9.6 13.0 0.00 0.11 0.11 41 1011.8
20260906212822 100 184 7.8 10.4 0.00 0.11 0.11 41 1011.7
20260906212318 98 178 7.8 12.2 0.00 0.11 0.11 43 1012.1
20260906211817 100 173 8.7 13.0 0.00 0.11 0.11 42 1012.2
20260906211313 100 192 9.6 13.0 0.00 0.11 0.11 41 1012.3
20260906210812 99 199 12.2 13.9 0.00 0.11 0.11 41 1012.2
20260906210307 98 161 9.6 11.3 0.00 0.11 0.11 44 1012.3
20260906205802 101 169 9.6 10.4 0.00 0.11 0.11 42 1012.3
20260906205259 99 190 9.6 14.8 0.00 0.11 0.11 43 1012.2
20260906204754 98 187 8.7 16.5 0.00 0.11 0.11 44 1012.3
20260906204253 99 193 8.7 13.0 0.00 0.11 0.11 43 1012.5
20260906203752 99 187 9.6 13.9 0.00 0.11 0.11 43 1012.6
20260906203248 98 170 10.4 13.9 0.00 0.11 0.11 45 1012.4
20260906202744 98 189 9.6 12.2 0.00 0.11 0.11 44 1012.5
20260906202244 97 180 9.6 11.3 0.00 0.11 0.11 46 1012.6
20260906201738 97 175 8.7 13.0 0.00 0.11 0.11 47 1012.8
20260906201233 97 199 10.4 13.0 0.00 0.11 0.11 44 1012.8
20260906200729 97 184 9.6 12.2 0.00 0.11 0.11 45 1012.8
20260906200225 96 172 8.7 13.0 0.00 0.11 0.11 46 1012.9
20260906195720 98 167 8.7 12.2 0.00 0.11 0.11 46 1012.9
20260906195216 97 170 9.6 13.0 0.00 0.11 0.11 47 1012.9
20260906194711 96 183 11.3 14.8 0.00 0.11 0.11 47 1013.1
20260906194206 98 180 9.6 13.9 0.00 0.11 0.11 46 1013.3
20260906193701 98 196 7.8 11.3 0.00 0.11 0.11 46 1013.2
20260906193156 97 162 10.4 13.9 0.00 0.11 0.11 48 1013.2
20260906192652 96 167 9.6 12.2 0.00 0.11 0.11 50 1013.3
20260906192151 96 164 8.7 12.2 0.00 0.11 0.11 49 1013.3
20260906191646 97 181 9.6 13.0 0.00 0.11 0.11 49 1013.3
20260906191146 94 179 7.8 13.9 0.00 0.11 0.11 51 1013.3
20260906190640 96 185 8.7 13.0 0.00 0.11 0.11 50 1013.4
20260906190135 95 178 8.7 13.0 0.00 0.11 0.11 52 1013.7
20260906185633 96 174 8.7 12.2 0.00 0.11 0.11 49 1013.3
20260906185127 95 183 10.4 13.0 0.00 0.11 0.11 51 1013.6
20260906184622 95 176 10.4 11.3 0.00 0.11 0.11 51 1013.7
20260906184118 93 180 10.4 13.0 0.00 0.11 0.11 52 1014.0
20260906183614 95 162 8.7 11.3 0.00 0.11 0.11 51 1013.9
20260906183109 94 172 9.6 13.0 0.00 0.11 0.11 52 1013.9
20260906182604 93 162 9.6 11.3 0.00 0.11 0.11 52 1014.0
20260906182101 93 187 9.6 14.8 0.00 0.11 0.11 53 1014.0
20260906181555 92 200 10.4 13.0 0.00 0.11 0.11 53 1014.0
20260906181051 92 175 9.6 13.0 0.00 0.11 0.11 52 1013.9
20260906180546 93 162 8.7 13.0 0.00 0.11 0.11 53 1014.4
20260906180044 93 176 8.7 13.0 0.00 0.11 0.11 54 1014.5
20260906175544 93 172 8.7 10.4 0.00 0.11 0.11 61 1014.4
20260906175039 91 178 11.3 12.2 0.00 0.11 0.11 60 1014.6
20260906174537 91 188 7.8 12.2 0.00 0.11 0.11 60 1014.6
20260906174032 89 189 13.0 13.9 0.00 0.11 0.11 62 1014.9
20260906173527 89 186 12.2 12.2 0.00 0.11 0.11 64 1015.0
20260906173023 90 184 11.3 13.0 0.00 0.11 0.11 65 1014.9
20260906172517 90 180 9.6 11.3 0.00 0.11 0.11 68 1015.0
20260906172013 88 184 9.6 12.2 0.00 0.11 0.11 70 1015.1
20260906171508 87 182 10.4 12.2 0.00 0.11 0.11 71 1015.3
20260906171003 88 188 8.7 11.3 0.00 0.11 0.11 71 1015.3
20260906170459 86 184 9.6 12.2 0.00 0.11 0.11 76 1015.3
20260906165956 85 180 8.7 13.0 0.00 0.11 0.11 77 1015.5
20260906165454 86 190 8.7 11.3 0.00 0.11 0.11 78 1015.5
20260906164950 84 197 10.4 11.3 0.00 0.11 0.11 78 1015.5
20260906164448 85 185 9.6 11.3 0.00 0.11 0.11 83 1015.3
20260906163945 84 194 9.6 10.4 0.00 0.11 0.11 84 1015.5
20260906163440 82 187 8.7 9.6 0.00 0.11 0.11 90 1015.5
20260906162938 80 182 8.7 10.4 0.00 0.11 0.11 92 1015.5
20260906162437 79 187 8.7 10.4 0.00 0.11 0.11 95 1015.5
20260906161932 79 180 8.7 10.4 0.00 0.11 0.11 97 1015.7
20260906161432 78 184 8.7 10.4 0.00 0.11 0.11 97 1015.4
20260906160931 78 183 8.7 9.6 0.00 0.11 0.11 97 1015.6
20260906160424 78 187 8.7 9.6 0.00 0.11 0.11 97 1015.6
20260906155923 77 183 7.8 9.6 0.00 0.11 0.11 97 1015.5
20260906155417 77 179 7.8 9.6 0.00 0.11 0.11 97 1015.5
20260906154913 76 188 9.6 9.6 0.00 0.11 0.11 97 1015.5
20260906154412 76 182 9.6 10.4 0.00 0.11 0.11 97 1015.3
20260906153911 76 180 8.7 10.4 0.02 0.11 0.11 96 1015.3
20260906153410 75 179 7.8 8.7 0.07 0.11 0.11 95 1015.4
20260906152906 75 178 8.7 9.6 0.09 0.10 0.10 95 1015.2
20260906152400 75 178 8.7 9.6 0.19 0.10 0.10 94 1015.1
20260906151859 76 181 8.7 9.6 0.47 0.09 0.09 93 1014.9
20260906151355 77 204 10.4 13.0 0.31 0.06 0.06 92 1015.0
20260906150851 79 183 9.6 10.4 0.00 0.00 0.00 85 1015.1
20260906150346 79 180 9.6 10.4 0.00 0.00 0.00 86 1015.1
20260906145845 79 175 8.7 10.4 0.00 0.00 0.00 86 1015.0
20260906145344 79 177 9.6 9.6 0.02 0.00 0.00 85 1015.1
20260906144839 80 175 9.6 9.6 0.02 0.00 0.00 82 1014.7
20260906144334 81 179 8.7 10.4 0.00 0.00 0.00 80 1015.0
20260906143834 80 179 9.6 10.4 0.00 0.00 0.00 79 1014.8
20260906143331 80 173 8.7 10.4 0.00 0.00 0.00 79 1014.9
20260906142826 81 174 8.7 11.3 0.00 0.00 0.00 79 1015.0
20260906142321 81 177 8.7 10.4 0.00 0.00 0.00 79 1014.8
20260906141821 81 180 9.6 10.4 0.00 0.00 0.00 79 1014.8
20260906141315 81 179 8.7 9.6 0.00 0.00 0.00 79 1014.8
20260906140814 81 173 9.6 9.6 0.00 0.00 0.00 79 1014.7
20260906140309 81 180 8.7 9.6 0.00 0.00 0.00 78 1014.6
20260906135807 81 178 8.7 9.6 0.00 0.00 0.00 78 1014.5
20260906135305 81 176 8.7 9.6 0.00 0.00 0.00 78 1014.6
20260906134757 81 180 8.7 10.4 0.00 0.00 0.00 79 1014.5
20260906134252 80 180 8.7 9.6 0.00 0.00 0.00 80 1014.4
20260906133748 80 178 9.6 10.4 0.00 0.00 0.00 81 1014.2
20260906133243 80 179 9.6 11.3 0.00 0.00 0.00 83 1014.4
20260906132738 79 177 8.7 9.6 0.00 0.00 0.00 83 1014.4
20260906132234 79 178 9.6 11.3 0.00 0.00 0.00 84 1014.0
20260906131730 78 176 9.6 10.4 0.00 0.00 0.00 85 1014.0
20260906131224 78 180 9.6 9.6 0.00 0.00 0.00 86 1014.0
20260906130720 77 180 7.8 9.6 0.00 0.00 0.00 86 1014.0
20260906130215 77 180 8.7 10.4 0.00 0.00 0.00 88 1014.0
20260906125713 76 180 9.6 10.4 0.00 0.00 0.00 88 1014.1
20260906125212 76 175 9.6 10.4 0.00 0.00 0.00 89 1013.8
20260906124707 76 177 9.6 9.6 0.00 0.00 0.00 89 1013.7
20260906124203 75 180 10.4 11.3 0.00 0.00 0.00 90 1013.6
20260906123701 75 178 7.8 12.2 0.00 0.00 0.00 89 1013.6
20260906123156 75 180 8.7 10.4 0.00 0.00 0.00 89 1013.7
20260906122655 75 177 9.6 11.3 0.00 0.00 0.00 89 1013.5
20260906122151 75 180 9.6 11.3 0.00 0.00 0.00 89 1013.4
20260906121647 75 177 8.7 10.4 0.00 0.00 0.00 89 1013.5
20260906121138 75 176 8.7 9.6 0.00 0.00 0.00 89 1013.4
20260906120634 75 178 7.0 9.6 0.00 0.00 0.00 88 1013.1
20260906120130 75 179 7.8 8.7 0.00 0.00 0.00 88 1013.1
20260906115624 75 180 7.0 10.4 0.00 0.00 0.00 88 1013.1
20260906115120 75 180 7.8 10.4 0.00 0.00 0.00 88 1013.2
20260906114613 75 180 9.6 11.3 0.00 0.00 0.00 88 1013.1
20260906114108 75 178 9.6 10.4 0.00 0.00 0.00 88 1013.1
20260906113608 75 178 10.4 12.2 0.00 0.00 0.00 87 1013.0
20260906113103 76 178 9.6 11.3 0.00 0.00 0.00 87 1013.1
20260906112603 76 180 10.4 10.4 0.00 0.00 0.00 87 1012.8
20260906112100 76 180 7.8 10.4 0.00 0.00 0.00 87 1012.9
20260906111559 76 180 10.4 13.9 0.00 0.00 0.00 87 1012.6
20260906111055 76 178 9.6 9.6 0.00 0.00 0.00 86 1012.7
20260906110554 76 179 8.7 9.6 0.00 0.00 0.00 86 1012.7
20260906110054 77 180 8.7 10.4 0.00 0.00 0.00 85 1012.5
20260906105548 77 179 9.6 10.4 0.00 0.00 0.00 85 1012.5
20260906105045 77 177 9.6 10.4 0.00 0.00 0.00 85 1012.5
20260906104543 77 177 8.7 11.3 0.00 0.00 0.00 85 1012.4
20260906104037 77 175 7.8 11.3 0.00 0.00 0.00 84 1012.6
20260906103536 77 180 6.1 9.6 0.00 0.00 0.00 84 1012.4
20260906103031 78 179 9.6 11.3 0.00 0.00 0.00 83 1012.4
20260906102532 78 178 8.7 11.3 0.00 0.00 0.00 83 1012.4
20260906102027 78 178 7.8 10.4 0.00 0.00 0.00 83 1012.5
20260906101527 78 178 9.6 10.4 0.00 0.00 0.00 83 1012.4
20260906101022 78 179 8.7 9.6 0.00 0.00 0.00 83 1012.8
20260906100517 78 181 8.7 9.6 0.00 0.00 0.00 83 1012.5
20260906100012 78 178 8.7 9.6 0.00 0.00 0.00 83 1012.3
20260906095507 79 178 8.7 10.4 0.00 0.00 0.00 82 1012.4
20260906095002 79 180 8.7 10.4 0.00 0.00 0.00 82 1012.4
20260906094501 79 179 9.6 10.4 0.00 0.00 0.00 82 1012.3
20260906093957 79 180 8.7 9.6 0.00 0.00 0.00 82 1012.5
20260906093453 78 182 8.7 9.6 0.00 0.00 0.00 83 1012.3
20260906092954 78 182 9.6 9.6 0.00 0.00 0.00 83 1012.4
20260906092453 78 184 8.7 9.6 0.00 0.00 0.00 83 1012.3
20260906091948 78 180 9.6 10.4 0.00 0.00 0.00 83 1012.4
20260906091438 78 180 8.7 9.6 0.00 0.00 0.00 83 1012.2
20260906090934 78 179 8.7 9.6 0.00 0.00 0.00 83 1012.3
20260906090430 78 180 8.7 9.6 0.00 0.00 0.00 83 1012.2
20260906085924 78 182 9.6 9.6 0.00 0.00 0.00 82 1012.2
20260906085424 79 178 8.7 9.6 0.00 0.00 0.00 82 1012.2
20260906084923 79 180 8.7 9.6 0.00 0.00 0.00 82 1012.2
20260906084418 79 188 9.6 9.6 0.00 0.00 0.00 82 1012.3
20260906083917 79 179 8.7 9.6 0.00 0.00 0.00 81 1012.3
20260906083413 79 180 9.6 10.4 0.00 0.00 0.00 81 1012.4
20260906082912 79 180 8.7 9.6 0.00 0.00 0.00 81 1012.3
20260906082407 80 180 8.7 9.6 0.00 0.00 0.00 80 1012.4
20260906081903 80 183 9.6 9.6 0.00 0.00 0.00 80 1012.5
20260906081358 80 180 8.7 9.6 0.00 0.00 0.00 80 1012.6
20260906080854 80 178 8.7 9.6 0.00 0.00 0.00 80 1012.5
20260906080351 80 178 9.6 10.4 0.00 0.00 0.00 79 1012.5
20260906075850 80 180 8.7 10.4 0.00 0.00 0.00 79 1012.5
20260906075344 80 180 9.6 10.4 0.00 0.00 0.00 79 1012.4
20260906074840 80 176 8.7 10.4 0.00 0.00 0.00 79 1012.7
20260906074339 80 187 9.6 11.3 0.00 0.00 0.00 79 1012.8
20260906073833 80 171 9.6 10.4 0.00 0.00 0.00 78 1012.7
20260906073328 80 183 9.6 10.4 0.00 0.00 0.00 78 1012.7
20260906072825 80 181 8.7 11.3 0.00 0.00 0.00 78 1012.9
20260906072320 80 177 9.6 10.4 0.00 0.00 0.00 78 1012.6
20260906071816 80 179 8.7 10.4 0.00 0.00 0.00 78 1012.7
20260906071315 80 178 9.6 12.2 0.00 0.00 0.00 78 1012.6
20260906070813 80 184 9.6 10.4 0.00 0.00 0.00 78 1012.7
20260906070308 80 174 8.7 12.2 0.00 0.00 0.00 78 1012.8
20260906065808 80 180 8.7 11.3 0.00 0.00 0.00 78 1012.9
20260906065305 81 181 8.7 10.4 0.00 0.00 0.00 78 1013.0
20260906064758 81 184 9.6 10.4 0.00 0.00 0.00 77 1012.9
20260906064254 81 173 8.7 12.2 0.00 0.00 0.00 77 1013.0
20260906063749 81 178 8.7 10.4 0.00 0.00 0.00 77 1013.0
20260906063245 81 179 9.6 10.4 0.00 0.00 0.00 77 1013.3
20260906062740 81 180 9.6 10.4 0.00 0.00 0.00 77 1013.1
20260906062239 81 177 8.7 10.4 0.00 0.00 0.00 76 1013.2
20260906061735 81 180 8.7 10.4 0.00 0.00 0.00 76 1013.1
20260906061231 81 179 8.7 11.3 0.00 0.00 0.00 76 1013.1
20260906060726 81 187 9.6 11.3 0.00 0.00 0.00 76 1013.1
20260906060224 81 175 8.7 10.4 0.00 0.00 0.00 76 1013.2
20260906055719 82 180 8.7 12.2 0.00 0.00 0.00 75 1013.2
20260906055214 82 187 10.4 11.3 0.00 0.00 0.00 75 1013.0
20260906054710 82 173 9.6 11.3 0.00 0.00 0.00 75 1013.2
20260906054210 82 180 8.7 10.4 0.00 0.00 0.00 75 1013.3
20260906053707 82 177 8.7 9.6 0.00 0.00 0.00 75 1013.2
20260906053202 82 171 8.7 10.4 0.00 0.00 0.00 75 1013.3
20260906052657 82 178 9.6 10.4 0.00 0.00 0.00 74 1013.4
20260906052153 82 174 9.6 11.3 0.00 0.00 0.00 74 1013.2
20260906051650 82 178 8.7 10.4 0.00 0.00 0.00 74 1013.3
20260906051149 82 176 11.3 12.2 0.00 0.00 0.00 74 1013.5
20260906050645 82 178 9.6 11.3 0.00 0.00 0.00 74 1013.4
20260906050139 82 177 8.7 13.0 0.00 0.00 0.00 73 1013.5
20260906045638 82 179 8.7 9.6 0.00 0.00 0.00 73 1013.4
20260906045133 82 182 9.6 11.3 0.00 0.00 0.00 73 1013.5
20260906044630 82 180 10.4 13.9 0.00 0.00 0.00 73 1013.3
20260906044125 83 178 8.7 11.3 0.00 0.00 0.00 72 1013.3
20260906043621 83 180 8.7 12.2 0.00 0.00 0.00 72 1013.4
20260906043116 83 182 8.7 11.3 0.00 0.00 0.00 72 1013.4
20260906042615 83 180 8.7 12.2 0.00 0.00 0.00 71 1013.5
20260906042109 83 182 11.3 12.2 0.00 0.00 0.00 71 1013.6
20260906041606 83 171 9.6 10.4 0.00 0.00 0.00 71 1013.3
20260906041100 83 178 10.4 11.3 0.00 0.00 0.00 71 1013.3
20260906040555 84 178 8.7 10.4 0.00 0.00 0.00 70 1013.3
20260906040045 84 178 8.7 11.3 0.00 0.00 0.00 69 1013.5
20260906035541 84 180 7.8 12.2 0.00 0.00 0.00 69 1013.5
20260906035036 84 177 8.7 12.2 0.00 0.00 0.00 68 1013.3
20260906034536 84 161 9.6 11.3 0.00 0.00 0.00 68 1013.4
20260906034031 84 181 9.6 13.0 0.00 0.00 0.00 67 1013.5
20260906033526 85 181 11.3 13.0 0.00 0.00 0.00 66 1013.3
20260906033016 85 180 8.7 12.2 0.00 0.00 0.00 65 1013.4
20260906032512 85 175 9.6 11.3 0.00 0.00 0.00 64 1013.2
20260906032007 85 179 9.6 15.6 0.00 0.00 0.00 64 1013.1
20260906031503 86 179 8.7 11.3 0.00 0.00 0.00 62 1013.1
20260906030957 86 170 8.7 12.2 0.00 0.00 0.00 62 1012.9
20260906030452 86 177 9.6 11.3 0.00 0.00 0.00 61 1013.0
20260906025946 86 183 8.7 12.2 0.00 0.00 0.00 61 1012.9
20260906025445 86 182 7.8 13.0 0.00 0.00 0.00 61 1012.7
20260906024944 86 166 8.7 12.2 0.00 0.00 0.00 61 1012.7
20260906024444 87 175 9.6 13.9 0.00 0.00 0.00 60 1012.6
20260906023945 87 175 9.6 13.9 0.00 0.00 0.00 61 1012.7
20260906023442 87 179 9.6 13.9 0.00 0.00 0.00 61 1012.6
20260906022941 87 179 8.7 10.4 0.00 0.00 0.00 61 1012.4
20260906022437 87 171 9.6 11.3 0.00 0.00 0.00 61 1012.2
20260906021932 87 178 8.7 13.0 0.00 0.00 0.00 60 1012.3
20260906021432 88 178 8.7 11.3 0.00 0.00 0.00 60 1012.0
20260906020926 88 173 8.7 11.3 0.00 0.00 0.00 59 1012.1
20260906020421 88 174 8.7 12.2 0.00 0.00 0.00 59 1011.6
20260906015915 88 176 9.6 13.0 0.00 0.00 0.00 59 1011.7
20260906015414 88 180 8.7 9.6 0.00 0.00 0.00 59 1011.8
20260906014909 89 176 8.7 12.2 0.00 0.00 0.00 58 1011.8
20260906014409 89 182 9.6 9.6 0.00 0.00 0.00 58 1011.7
20260906013905 89 180 12.2 13.9 0.00 0.00 0.00 57 1011.6
20260906013400 89 176 10.4 12.2 0.00 0.00 0.00 57 1011.7
20260906012856 89 170 8.7 11.3 0.00 0.00 0.00 57 1011.4
20260906012350 90 180 9.6 11.3 0.00 0.00 0.00 57 1011.3
20260906011850 90 170 8.7 11.3 0.00 0.00 0.00 56 1011.1
20260906011345 90 166 8.7 11.3 0.00 0.00 0.00 56 1011.1
20260906010841 90 174 8.7 13.0 0.00 0.00 0.00 55 1011.1
20260906010337 91 185 9.6 13.0 0.00 0.00 0.00 54 1011.0
20260906005832 91 173 11.3 12.2 0.00 0.00 0.00 54 1011.0
20260906005331 91 185 10.4 13.0 0.00 0.00 0.00 53 1011.1
20260906004830 92 171 9.6 13.0 0.00 0.00 0.00 53 1011.3
20260906004330 92 171 9.6 11.3 0.00 0.00 0.00 52 1011.3
20260906003825 93 179 8.7 12.2 0.00 0.00 0.00 50 1011.0
20260906003321 93 156 9.6 13.0 0.00 0.00 0.00 48 1011.0
20260906002816 93 182 9.6 11.3 0.00 0.00 0.00 46 1011.1
20260906002315 94 178 10.4 12.2 0.00 0.00 0.00 46 1011.1
20260906001811 94 180 8.7 10.4 0.00 0.00 0.00 45 1010.9
20260906001306 95 175 8.7 13.0 0.00 0.00 0.00 44 1011.0
20260906000801 95 177 8.7 10.4 0.00 0.00 0.00 43 1011.1
20260906000256 95 176 8.7 12.2 0.00 0.00 0.00 42 1011.0
20260905235750 96 177 9.6 10.4 0.00 0.00 0.00 42 1010.9
20260905235250 96 177 9.6 11.3 0.00 0.00 0.00 41 1010.9
20260905234746 97 176 9.6 10.4 0.00 0.00 0.00 40 1010.9
20260905234241 99 178 7.8 12.2 0.00 0.00 0.00 38 1010.9
20260905233737 100 180 8.7 11.3 0.00 0.00 0.00 38 1010.9
20260905233236 99 184 9.6 12.2 0.00 0.00 0.00 38 1010.8
20260905232736 101 180 8.7 10.4 0.00 0.00 0.00 38 1010.9
20260905232232 100 177 8.7 9.6 0.00 0.00 0.00 38 1011.0
20260905231727 101 180 10.4 11.3 0.00 0.00 0.00 38 1010.9
20260905231223 101 183 9.6 12.2 0.00 0.00 0.00 38 1010.8
20260905230719 101 188 10.4 11.3 0.00 0.00 0.00 38 1010.9
20260905230216 101 185 8.7 11.3 0.00 0.00 0.00 38 1010.9